Location: �clusier
(49.9361°N, 2.7869°E)
Time: 22:19:03
(UTC+00:00)

SL-14 R/B - Pass Details

Date: 16 June 2021
Orbit: 518 x 554 km, 82.4° (Epoch: 02 August)

Event Time Altitude Azimuth Distance (km) Brightness Sun altitude
Exits shadow 21:16:19 12° 151° (SSE) 1,688 5.1 -9.2°
Maximum altitude 21:19:30 31° 91° (E) 984 4.3 -9.5°
Drops below altitude 10° 21:23:05 10° 29° (NNE) 1,841 6.4 -9.8°
Sets 21:25:25 0° 19° (NNE) 2,736 7.5 -10.0°
